• en Suisse
  • Liste des pays
  • À 7 jours
  • Température de l'eau
  • Carte satellitaire
  • Carte météo
  • Widgets météo
  • user-avatar
    Se connecter

    Météo par heure à Vennesla

    Ce jour, 16 Octobre, Mardi

    Heure Température Précipitation Vent Pression Humidité
    00:00 +7°C° 0 mm 2 m/s 738 mmHg 78%
    01:00 +7°C° 0 mm 2 m/s 739 mmHg 77%
    02:00 +6°C° 0 mm 2 m/s 739 mmHg 75%
    03:00 +6°C° 0 mm 2 m/s 738 mmHg 74%
    04:00 +7°C° 0 mm 1 m/s 738 mmHg 73%
    05:00 +6°C° 0 mm 2 m/s 739 mmHg 73%
    06:00 +6°C° 0 mm 2 m/s 739 mmHg 74%
    07:00 +6°C° 0 mm 2 m/s 739 mmHg 74%
    08:00 +7°C° 0 mm 2 m/s 739 mmHg 75%
    09:00 +8°C° 0 mm 2 m/s 740 mmHg 77%
    10:00 +9°C° 0 mm 2 m/s 740 mmHg 78%
    11:00 +10°C° 0 mm 2 m/s 740 mmHg 79%
    12:00 +10°C° 0 mm 2 m/s 740 mmHg 80%
    13:00 +11°C° 0 mm 3 m/s 740 mmHg 81%
    14:00 +10°C° 0 mm 2 m/s 739 mmHg 82%
    15:00 +10°C° 0 mm 2 m/s 739 mmHg 83%
    16:00 +10°C° 0 mm 2 m/s 739 mmHg 84%
    17:00 +10°C° 0 mm 2 m/s 739 mmHg 86%
    18:00 +9°C° 0 mm 2 m/s 739 mmHg 89%
    19:00 +9°C° 0 mm 2 m/s 739 mmHg 91%
    20:00 +9°C° 0.2 mm 2 m/s 739 mmHg 91%
    21:00 +9°C° 0.2 mm 2 m/s 738 mmHg 91%
    22:00 +9°C° 0.2 mm 2 m/s 738 mmHg 92%
    23:00 +9°C° 0.3 mm 2 m/s 738 mmHg 93%

    Demain, 17 Octobre, Mercredi

    Heure Température Précipitation Vent Pression Humidité
    00:00 +9°C° 0.3 mm 2 m/s 738 mmHg 94%
    01:00 +9°C° 0.3 mm 2 m/s 738 mmHg 95%
    02:00 +9°C° 0.2 mm 2 m/s 738 mmHg 96%
    03:00 +9°C° 0.2 mm 3 m/s 737 mmHg 97%
    04:00 +10°C° 0.2 mm 3 m/s 737 mmHg 98%
    05:00 +10°C° 0 mm 3 m/s 737 mmHg 98%
    06:00 +10°C° 0 mm 3 m/s 738 mmHg 98%
    07:00 +11°C° 0 mm 3 m/s 738 mmHg 98%
    08:00 +11°C° 0 mm 3 m/s 738 mmHg 96%
    09:00 +11°C° 0 mm 3 m/s 738 mmHg 95%
    10:00 +12°C° 0 mm 3 m/s 739 mmHg 94%
    11:00 +12°C° 0 mm 3 m/s 739 mmHg 92%
    12:00 +12°C° 0 mm 3 m/s 739 mmHg 89%
    13:00 +13°C° 0 mm 3 m/s 740 mmHg 87%
    14:00 +13°C° 0 mm 3 m/s 740 mmHg 85%
    15:00 +12°C° 0 mm 3 m/s 740 mmHg 83%
    16:00 +12°C° 0 mm 3 m/s 740 mmHg 81%
    17:00 +11°C° 0 mm 3 m/s 740 mmHg 84%
    18:00 +10°C° 0 mm 3 m/s 740 mmHg 87%
    19:00 +9°C° 0 mm 3 m/s 741 mmHg 90%
    20:00 +9°C° 0 mm 3 m/s 741 mmHg 91%
    21:00 +8°C° 0 mm 3 m/s 741 mmHg 91%
    22:00 +8°C° 0 mm 3 m/s 741 mmHg 91%
    23:00 +7°C° 0 mm 4 m/s 742 mmHg 89%

    Après-demain, 18 Octobre, Jeudi

    Heure Température Précipitation Vent Pression Humidité
    00:00 +6°C° 0 mm 4 m/s 742 mmHg 88%
    01:00 +6°C° 0 mm 4 m/s 742 mmHg 87%
    02:00 +5°C° 0 mm 4 m/s 742 mmHg 86%
    03:00 +5°C° 0 mm 5 m/s 742 mmHg 85%
    04:00 +3°C° 0 mm 5 m/s 743 mmHg 83%
    05:00 +4°C° 0 mm 4 m/s 743 mmHg 83%
    06:00 +4°C° 0 mm 4 m/s 743 mmHg 83%
    07:00 +4°C° 0 mm 4 m/s 743 mmHg 83%
    08:00 +5°C° 0 mm 4 m/s 744 mmHg 78%
    09:00 +6°C° 0 mm 4 m/s 744 mmHg 73%
    10:00 +7°C° 0 mm 4 m/s 744 mmHg 68%
    11:00 +8°C° 0 mm 4 m/s 745 mmHg 64%
    12:00 +10°C° 0 mm 4 m/s 745 mmHg 61%
    13:00 +11°C° 0 mm 4 m/s 745 mmHg 57%
    14:00 +10°C° 0 mm 4 m/s 745 mmHg 58%
    15:00 +10°C° 0 mm 4 m/s 745 mmHg 60%
    16:00 +10°C° 0 mm 4 m/s 745 mmHg 61%
    17:00 +7°C° 0 mm 4 m/s 745 mmHg 66%
    18:00 +6°C° 0 mm 4 m/s 745 mmHg 71%
    19:00 +5°C° 0 mm 3 m/s 745 mmHg 75%
    20:00 +5°C° 0 mm 3 m/s 745 mmHg 76%
    21:00 +4°C° 0 mm 3 m/s 745 mmHg 77%
    22:00 +4°C° 0 mm 3 m/s 745 mmHg 78%
    23:00 +4°C° 0 mm 3 m/s 745 mmHg 77%

    19 Octobre, Vendredi

    Heure Température Précipitation Vent Pression Humidité
    00:00 +4°C° 0 mm 3 m/s 745 mmHg 77%
    01:00 +5°C° 0 mm 2 m/s 745 mmHg 77%
    02:00 +4°C° 0 mm 2 m/s 745 mmHg 76%
    03:00 +4°C° 0 mm 2 m/s 745 mmHg 76%
    04:00 +4°C° 0 mm 2 m/s 745 mmHg 76%
    05:00 +4°C° 0 mm 2 m/s 745 mmHg 76%
    06:00 +4°C° 0 mm 2 m/s 745 mmHg 76%
    07:00 +3°C° 0 mm 2 m/s 745 mmHg 76%
    08:00 +5°C° 0 mm 2 m/s 745 mmHg 72%
    09:00 +6°C° 0 mm 2 m/s 745 mmHg 68%
    10:00 +7°C° 0 mm 2 m/s 745 mmHg 63%
    11:00 +8°C° 0 mm 3 m/s 745 mmHg 63%
    12:00 +7°C° 0 mm 4 m/s 745 mmHg 62%
    13:00 +8°C° 0 mm 4 m/s 745 mmHg 61%
    14:00 +7°C° 0 mm 5 m/s 745 mmHg 64%
    15:00 +7°C° 0 mm 5 m/s 745 mmHg 67%
    16:00 +7°C° 0 mm 5 m/s 744 mmHg 71%
    17:00 +7°C° 0 mm 5 m/s 744 mmHg 76%
    18:00 +6°C° 0 mm 5 m/s 744 mmHg 81%
    19:00 +6°C° 0 mm 5 m/s 744 mmHg 86%
    20:00 +6°C° 0 mm 5 m/s 744 mmHg 88%
    21:00 +6°C° 0 mm 5 m/s 744 mmHg 90%
    22:00 +5°C° 0 mm 5 m/s 744 mmHg 92%
    23:00 +6°C° 0 mm 5 m/s 744 mmHg 92%

    20 Octobre, Samedi

    Heure Température Précipitation Vent Pression Humidité
    00:00 +7°C° 0 mm 5 m/s 744 mmHg 92%
    01:00 +7°C° 0 mm 5 m/s 744 mmHg 92%
    02:00 +7°C° 0 mm 5 m/s 744 mmHg 92%
    03:00 +6°C° 0 mm 4 m/s 744 mmHg 92%
    04:00 +5°C° 0 mm 4 m/s 744 mmHg 92%
    05:00 +5°C° 0 mm 4 m/s 744 mmHg 91%
    06:00 +5°C° 0 mm 4 m/s 745 mmHg 90%
    07:00 +5°C° 0 mm 4 m/s 745 mmHg 90%
    08:00 +6°C° 0 mm 4 m/s 745 mmHg 87%
    09:00 +6°C° 0 mm 4 m/s 745 mmHg 83%
    10:00 +8°C° 0 mm 3 m/s 745 mmHg 80%
    11:00 +8°C° 0.2 mm 3 m/s 745 mmHg 83%
    12:00 +8°C° 0.2 mm 4 m/s 745 mmHg 86%
    13:00 +8°C° 0.2 mm 4 m/s 744 mmHg 90%
    14:00 +8°C° 0.2 mm 4 m/s 744 mmHg 91%
    15:00 +8°C° 0.2 mm 4 m/s 744 mmHg 92%
    16:00 +8°C° 0.2 mm 5 m/s 743 mmHg 93%
    17:00 +8°C° 0 mm 5 m/s 743 mmHg 94%
    18:00 +8°C° 0 mm 5 m/s 743 mmHg 95%
    19:00 +8°C° 0 mm 5 m/s 743 mmHg 96%
    20:00 +8°C° 0 mm 5 m/s 743 mmHg 96%
    21:00 +10°C° 0 mm 4 m/s 742 mmHg 96%
    22:00 +10°C° 0 mm 4 m/s 742 mmHg 96%
    23:00 +10°C° 0 mm 4 m/s 742 mmHg 95%

    21 Octobre, Dimanche

    Heure Température Précipitation Vent Pression Humidité
    00:00 +10°C° 0 mm 5 m/s 742 mmHg 95%
    01:00 +10°C° 0 mm 5 m/s 742 mmHg 94%
    02:00 +12°C° 0.1 mm 5 m/s 742 mmHg 93%
    03:00 +12°C° 0.1 mm 5 m/s 741 mmHg 93%
    04:00 +12°C° 0.1 mm 5 m/s 741 mmHg 93%
    05:00 +13°C° 0.1 mm 5 m/s 741 mmHg 93%
    06:00 +13°C° 0.1 mm 6 m/s 741 mmHg 93%
    07:00 +13°C° 0.1 mm 6 m/s 740 mmHg 92%
    08:00 +13°C° 0 mm 6 m/s 740 mmHg 91%
    09:00 +14°C° 0 mm 7 m/s 740 mmHg 89%
    10:00 +14°C° 0 mm 7 m/s 740 mmHg 87%
    11:00 +14°C° 0 mm 7 m/s 740 mmHg 87%
    12:00 +14°C° 0 mm 7 m/s 739 mmHg 88%
    13:00 +12°C° 0 mm 7 m/s 739 mmHg 88%
    14:00 +12°C° 0 mm 8 m/s 738 mmHg 88%
    15:00 +12°C° 0 mm 8 m/s 738 mmHg 88%
    16:00 +12°C° 0 mm 8 m/s 737 mmHg 88%
    17:00 +12°C° 0.1 mm 9 m/s 737 mmHg 86%
    18:00 +11°C° 0.1 mm 9 m/s 737 mmHg 85%
    19:00 +11°C° 0.1 mm 9 m/s 737 mmHg 84%
    20:00 +10°C° 0.1 mm 9 m/s 737 mmHg 81%
    21:00 +8°C° 0.1 mm 9 m/s 737 mmHg 78%
    22:00 +6°C° 0.1 mm 9 m/s 737 mmHg 75%
    23:00 +6°C° 0 mm 9 m/s 738 mmHg 73%
    Voir plus